サイディング・スプリング彗星

C/2007 K3 ( Siding Spring )

English version
Home page
Updated on October 7, 2008

---------------------------------------------------------------------

・ プロフィール

発見日 2007年5月23日
発見光度 19.0等
発見者 Siding Spring Survey

・ 写真集

・ 軌道要素

Epoch 2008 Apr. 4.0 TT = JDT 2454560.5
T 2008 Apr. 21.68431 TT                                 MPC
q   2.0508321            (2000.0)            P               Q
z  -0.0006240      Peri.   23.58612     +0.27367271     +0.92055152
 +/-0.0000430      Node   263.25057     -0.92109120     +0.16739834
e   1.0012797      Incl.   16.30026     -0.27693725     +0.35293441

・ 星図

・ 光度変化

        m1 = 12.0 + 5 logΔ + 10.0 log r(t + 220)

        ※ 灰色の曲線は、m1 = 9.5 + 5 logΔ + 10.0 log r の光度曲線です。

---------------------------------------------------------------------

軌道要素はM.P.E.C. 2008-P18に掲載されたものです。
星図は StellaNavigator Ver.2.0 for Windows (アストロアーツ編著 / アスキー出版局刊) で作成したものです。
光度グラフはComet for Windowsで作成したものです。

---------------------------------------------------------------------

Copyright(C) Seiichi Yoshida (comet@aerith.net). All rights reserved.